AirNav   Air Wisconsin Up To $57,000 Bonus
 
 945 users online  

68CA Lake California Air Park
Cottonwood, California, USA

GOING TO COTTONWOOD?


FAA INFORMATION EFFECTIVE 02 JANUARY 2020

Location

FAA Identifier: 68CA
Lat/Long: 40-21-40.0000N 122-12-57.0000W
40-21.666667N 122-12.950000W
40.3611111,-122.2158333
(estimated)
Elevation: 615 ft. / 187 m (estimated)
Variation: 17E (1990)
From city: 4 miles SE of COTTONWOOD, CA
Time zone: UTC -8 (UTC -7 during Daylight Saving Time)
Zip code: 96022

Airport Operations

Airport use: Private use. Permission required prior to landing
Activation date: 09/1995
Control tower: no
ARTCC: OAKLAND CENTER
FSS: RANCHO MURIETA FLIGHT SERVICE STATION
Attendance: UNATNDD
Wind indicator: yes, MID-FIELD WEST SIDE
Segmented circle: yes
MID-FIELD WEST SIDE.
Lights: ACTVT RWY LGTS 122.9 - 3 CLICKS

Airport Communications

WX ASOS at RDD (10 nm N): PHONE 530-221-7144
WX ASOS at RBL (13 nm S): 120.775 (530-528-8030)
WX AWOS-2 at O85 (15 nm NW): 118.675 (530-225-4183)

Nearby radio navigation aids

VOR radial/distance  VOR name  Freq  Var
RDDr140/9.3REDDING VOR/DME108.4018E
RBLr345/15.8RED BLUFF VORTAC115.7018E
CICr318/38.2CHICO VOR/DME109.8016E

Airport Services

Runway Information

Runway 14/32

Dimensions: 3000 x 75 ft. / 914 x 23 m
Surface: asphalt, in good condition
Operational restrictions: RWY 32 1% DOWN / RWY 14 CALM WIND
RUNWAY 14  RUNWAY 32
Traffic pattern: rightleft

Airport Ownership and Management from official FAA records

Ownership: Privately-owned
Owner: LAKE CA PROPERTY OWNER ASSOC
19999 LAKE CALIFORNIA WAY
COTTONWOOD, CA 96022
Phone 530-347-7900
Manager: SCOTT NIELSON
19999 LAKE CALIFORNIA DRIVE
COTTONWOOD, CA 96022
Phone 530-347-7900
POC: GENE EVANS (PHONE 530-347-6712)

Airport Operational Statistics

Aircraft based on the field: 20
Single engine airplanes: 19
Multi engine airplanes: 1
    

Additional Remarks

FOR CD CTC OAKLAND ARTCC AT 510-745-3380.

Instrument Procedures

There are no published instrument procedures at 68CA.

Some nearby airports with instrument procedures:

KRDD - Redding Municipal Airport (10 nm N)
KRBL - Red Bluff Municipal Airport (13 nm S)
KCIC - Chico Municipal Airport (38 nm SE)
O37 - Haigh Field Airport (39 nm S)
KWLW - Willows-Glenn County Airport (51 nm S)
 
Loc | Ops | Rwys | IFR | FBO | Links
Com | Nav | Svcs | Stats | Notes
Area around 68CA (Lake California Air Park)
 
Road maps at: MapQuest Bing Google
 
Aerial photo
WARNING: Photo may not be current or correct
Aerial photo of 68CA (Lake California Air Park)
Do you have a better or more recent aerial photo of Lake California Air Park that you would like to share? If so, please send us your photo.

 
Sectional chart

 
Airport distance calculator
Flying to Lake California Air Park? Find the distance to fly.

From to 68CA

Sunrise and sunset
Times for 22-Jan-2020
 Local
(UTC-8)
 Zulu
(UTC)
Morning civil twilight06:5814:58
Sunrise07:2715:27
Sunset17:1401:14
Evening civil twilight17:4301:43

Current date and time
Zulu (UTC)  23-Jan-2020 03:50:11
Local (UTC-8)  22-Jan-2020 19:50:11
 
METAR
KRDD 
10nm N 
230253Z 00000KT 9SM BKN032 11/08 A3025 RMK AO2 SLP244 T01060083 53002
KRBL 
13nm S 
230254Z AUTO 31003KT 9SM CLR 10/08 A3027 RMK AO2 SLP248 T01000083 53002
KO54 
16nm S 
230335Z AUTO 00000KT 8SM BKN006 OVC018 06/05 A3027 RMK AO1
TAF
KRDD 
10nm N 
230024Z 2300/2324 VRB03KT P6SM OVC035 FM230800 00000KT 5SM BR SCT250 TEMPO 2309/2313 2SM BR OVC008 FM231800 00000KT P6SM OVC060
KRBL 
13nm S 
221737Z 2218/2318 34003KT 5SM BR OVC005 TEMPO 2218/2222 P6SM NSW SCT005 OVC015 FM222200 VRB03KT P6SM OVC025 FM230100 32004KT P6SM OVC050
NOTAMs
Click for the latest NOTAMs
NOTAMs are issued by the DoD/FAA and will open in a separate window not controlled by AirNav.

 

 
 

Would you like to see your business listed on this page?

 If your business provides an interesting product or service to pilots, flight crews, aircraft, or users of the Lake California Air Park, you should consider listing it here.  To start the listing process, click on the button below
 
Add a business
 

Other Pages about Lake California Air Park

www.lakecalifornia.net/...
 
Update a link
 
Copyright © AirNav, LLC. All rights reserved. Privacy Policy  Contact